Weather History for KCLL - October, 2013

Change the Weather History Date:

Wednesday, October 16, 2013

  Actual Average Record
Temperature  
Mean Temperature 61 °F 71 °F  
Max Temperature 64 °F 82 °F 95 °F (1910)
Min Temperature 58 °F 60 °F 42 °F (1943)
Degree Days  
Heating Degree Days 4 1  
Month to date heating degree days 4 6  
Since 1 July heating degree days 4 8  
Cooling Degree Days 0 7  
Month to date cooling degree days 151 136  
Year to date cooling degree days 3184 2932  
Growing Degree Days 12 (Base 50)    
Moisture  
Dew Point 58 °F    
Average Humidity 92    
Maximum Humidity 100    
Minimum Humidity 84    
Precipitation  
Precipitation 0.35 in 0.17 in 13.39 in (1994)
Month to date precipitation 5.50 2.47  
Year to date precipitation 30.42 31.17  
Sea Level Pressure  
Sea Level Pressure 30.00 in    
Wind  
Wind Speed 9 mph (NNW)    
Max Wind Speed 15 mph    
Max Gust Speed 18 mph    
Visibility 9 miles    
Events Rain    
T = Trace of Precipitation, MM = Missing Value Source: NWS Daily Summary

Daily Weather History Graph

Daily Weather History Graph

Search for Another Location

Airport or City:

Trip Planner

Search our weather history database for the weather conditions in past years. The results will help you decide how hot, cold, wet, or windy it might be!

Date:

Astronomy

Oct. 16, 2013 Rise Set
Actual Time 7:28 AM CDT 6:52 PM CDT
Civil Twilight 7:04 AM CDT 7:17 PM CDT
Nautical Twilight 6:36 AM CDT 7:45 PM CDT
Astronomical Twilight 6:08 AM CDT 8:12 PM CDT
Moon 5:26 PM CDT (10/16) 5:06 AM CDT (10/16)
Length of Visible Light 12h 12m
Length of Day
11h 24m
Waxing Gibbous, 94% of the Moon is Illuminated
Oct 16
Waxing Gibbous
Oct 18
Full
Oct 26
Last Quarter
Nov 3
New
Nov 9
First Quarter

Hourly Weather History & Observations

Time (CDT) Temp. Dew Point Humidity Pressure Visibility Wind Dir Wind Speed Gust Speed Precip Events Conditions
12:07 AM 66.2 °F 64.4 °F 94% 29.98 in 10.0 mi WNW 8.1 mph - N/A   Overcast
12:48 AM 64.4 °F 62.6 °F 94% 29.96 in 10.0 mi NW 9.2 mph - N/A   Overcast
12:53 AM 64.9 °F 63.0 °F 93% 29.94 in 10.0 mi NNW 9.2 mph - N/A   Overcast
1:53 AM 63.0 °F 62.1 °F 97% 29.95 in 10.0 mi NNW 10.4 mph - N/A   Overcast
2:45 AM 62.6 °F 60.8 °F 94% 29.96 in 7.0 mi NNW 6.9 mph - N/A   Overcast
2:53 AM 62.1 °F 61.0 °F 96% 29.95 in 9.0 mi NW 10.4 mph - N/A   Overcast
3:53 AM 60.1 °F 59.0 °F 96% 29.96 in 9.0 mi NNW 11.5 mph - N/A   Overcast
4:48 AM 59.0 °F 57.2 °F 94% 29.99 in 10.0 mi NNW 11.5 mph - N/A   Overcast
4:53 AM 59.0 °F 57.0 °F 93% 29.98 in 10.0 mi NNW 10.4 mph - N/A   Overcast
5:53 AM 59.0 °F 57.0 °F 93% 29.98 in 10.0 mi NNW 8.1 mph - N/A   Overcast
6:53 AM 59.0 °F 57.0 °F 93% 29.98 in 10.0 mi North 6.9 mph - N/A   Overcast
7:13 AM 59.0 °F 55.4 °F 88% 29.99 in 10.0 mi North 6.9 mph - N/A   Overcast
7:53 AM 59.0 °F 55.9 °F 90% 29.99 in 10.0 mi North 9.2 mph - N/A   Overcast
8:40 AM 59.0 °F 57.2 °F 94% 30.02 in 10.0 mi NNW 10.4 mph - 0.00 in Rain Light Rain
8:53 AM 59.0 °F 57.9 °F 96% 29.99 in 1.8 mi NE 4.6 mph - 0.07 in Rain Heavy Rain
9:04 AM 59.0 °F 57.2 °F 94% 30.01 in 2.5 mi NNW 3.5 mph - 0.04 in Rain Rain
9:35 AM 59.0 °F 59.0 °F 100% 30.02 in 3.0 mi Calm Calm - 0.15 in Rain Heavy Rain
9:53 AM 60.1 °F 59.0 °F 96% 30.02 in 4.0 mi NW 5.8 mph - 0.18 in Rain Rain
10:53 AM 57.9 °F 57.9 °F 100% 30.04 in 4.0 mi NNW 10.4 mph - 0.07 in Rain Rain
11:44 AM 59.0 °F 57.2 °F 94% 30.05 in 10.0 mi NNW 10.4 mph - 0.02 in Rain Light Rain
11:53 AM 59.0 °F 57.9 °F 96% 30.04 in 9.0 mi North 9.2 mph - 0.02 in Rain Light Rain
12:53 PM 57.9 °F 57.0 °F 97% 30.03 in 10.0 mi NNW 10.4 mph - 0.01 in Rain Light Rain
1:53 PM 59.0 °F 57.9 °F 96% 30.01 in 10.0 mi NNW 9.2 mph - 0.00 in   Overcast
2:53 PM 60.1 °F 57.9 °F 93% 29.99 in 10.0 mi NNW 9.2 mph - 0.00 in Rain Light Rain
3:53 PM 61.0 °F 57.9 °F 90% 29.99 in 10.0 mi NNW 9.2 mph - 0.00 in   Overcast
4:53 PM 61.0 °F 57.9 °F 90% 29.99 in 10.0 mi North 8.1 mph - N/A   Overcast
5:53 PM 60.1 °F 57.9 °F 93% 29.99 in 10.0 mi North 9.2 mph - N/A   Overcast
6:32 PM 60.8 °F 57.2 °F 88% 30.01 in 10.0 mi NNW 6.9 mph - N/A   Overcast
6:53 PM 60.1 °F 57.0 °F 90% 30.00 in 10.0 mi NNW 6.9 mph - N/A   Overcast
7:22 PM 60.8 °F 57.2 °F 88% 30.01 in 6.0 mi NNW 9.2 mph 16.1 mph N/A   Overcast
7:53 PM 60.1 °F 57.9 °F 93% 30.02 in 8.0 mi NNW 9.2 mph - N/A   Overcast
8:53 PM 60.1 °F 57.9 °F 93% 30.04 in 9.0 mi North 9.2 mph - N/A   Overcast
9:51 PM 60.8 °F 57.2 °F 88% 30.05 in 10.0 mi North 11.5 mph - N/A   Overcast
9:53 PM 60.1 °F 57.0 °F 90% 30.05 in 10.0 mi North 11.5 mph - N/A   Overcast
10:25 PM 60.8 °F 55.4 °F 82% 30.06 in 10.0 mi North 5.8 mph - N/A   Overcast
10:53 PM 60.1 °F 55.0 °F 83% 30.06 in 10.0 mi North 6.9 mph - N/A   Overcast
11:53 PM 59.0 °F 55.9 °F 90% 30.05 in 10.0 mi North 6.9 mph - N/A   Overcast